Theta_e
358 356 358 357 356 354 347 341 319 325 322 311 312 318 317 329 329 324 325 330 324 335 336 339 335 334 329 325 326 329 331 323 323 314 309 331 346 347 350 350 351 350 350 351 353 356 358 359 361 363 364 365 365 364 365 366 367 368 368 367 368 367 367 367 367 367 368 368 368 368 368 367 366 366 365 364 364 364 364 363 363 363 363 362 361 361 362 361 360 360 360 361 360 360 360 360 361
357 357 357 357 353 349 334 341 319 314 314 310 310 320 323 326 325 321 323 325 329 330 335 336 336 336 335 334 333 332 329 333 335 332 337 344 348 348 351 351 351 349 350 352 354 355 355 358 363 363 364 365 365 364 366 367 368 368 368 367 368 367 367 367 367 368 367 367 368 368 367 366 365 365 364 364 364 364 363 363 363 363 362 361 361 361 362 361 361 360 360 361 361 361 360 359 358
356 357 353 355 350 345 341 337 315 308 305 304 308 317 327 323 321 324 326 329 331 334 335 336 337 335 332 332 327 329 320 337 336 338 338 346 341 344 351 352 352 351 352 354 354 354 355 359 363 364 364 365 365 366 366 367 368 368 367 367 368 367 367 367 367 367 367 367 368 367 366 366 365 365 365 364 364 364 363 363 362 362 361 361 360 360 360 362 361 360 360 359 360 360 359 359 359
357 355 350 350 337 344 329 321 312 310 307 305 308 318 322 322 323 325 328 331 332 334 335 333 329 335 332 326 328 333 331 332 337 338 336 341 342 348 351 352 354 353 354 354 354 355 356 360 364 364 364 365 365 365 366 367 367 368 367 367 367 367 367 367 367 367 367 367 367 367 366 366 366 366 366 365 364 363 363 362 361 361 360 361 360 360 361 361 361 360 359 361 359 360 359 360 360
355 355 355 346 337 328 325 316 312 311 308 309 307 314 324 324 324 326 328 331 332 334 334 332 330 336 336 332 334 324 327 338 338 342 340 346 350 351 352 353 354 354 354 354 356 356 357 362 364 363 364 365 365 366 366 367 367 367 367 367 366 367 366 367 367 367 368 367 366 366 366 366 366 365 365 365 365 363 362 362 361 360 360 360 360 360 359 360 360 361 360 361 360 360 360 360 360
353 352 353 349 332 339 329 316 312 311 313 317 314 316 324 326 325 327 329 332 333 334 334 333 330 330 330 333 338 331 337 329 338 341 343 344 350 352 353 355 354 354 355 355 355 355 357 362 363 363 364 365 366 366 366 366 366 367 366 366 366 367 367 366 366 367 368 366 365 366 366 366 365 365 365 365 364 363 361 361 360 360 360 360 361 361 361 361 363 362 360 361 360 359 360 359 360
347 346 344 342 339 341 321 314 312 313 319 321 317 320 324 325 327 328 328 329 333 334 336 331 333 331 326 334 337 340 346 343 339 341 347 349 351 353 354 353 353 353 355 355 355 356 358 362 362 363 364 365 365 366 366 366 366 366 366 366 366 366 366 366 366 366 367 367 366 365 365 365 364 365 365 364 364 363 362 361 362 362 361 361 360 360 361 362 361 361 362 361 361 360 360 360 359
352 340 337 330 326 327 318 317 316 317 318 323 323 322 325 326 329 328 327 328 327 328 331 332 333 331 329 339 328 342 346 348 346 349 350 351 352 353 354 353 352 353 355 355 356 357 362 362 362 363 365 365 366 366 365 365 366 366 365 366 366 366 366 366 366 367 367 367 365 365 365 364 364 364 364 364 364 363 363 362 362 362 362 362 362 362 362 361 361 362 362 361 362 361 361 359 359
344 342 342 333 321 320 317 315 315 322 321 324 323 328 332 328 329 328 326 330 330 331 330 332 332 326 330 333 333 341 345 349 349 352 351 351 351 353 353 353 352 352 355 355 356 358 359 362 363 363 364 365 365 365 365 365 365 365 365 365 365 366 366 366 366 366 367 366 365 365 365 365 365 364 364 364 363 363 363 363 362 362 363 362 362 362 362 361 362 362 362 362 362 362 359 360 360
339 341 330 328 320 312 310 308 311 313 321 325 324 325 326 328 328 329 328 327 328 331 332 335 334 329 333 329 333 339 342 349 349 348 350 351 352 353 353 353 353 353 354 356 356 358 359 363 364 363 363 364 365 365 365 366 365 365 365 365 365 365 366 366 366 366 366 366 365 365 364 364 364 364 363 363 363 362 362 362 361 362 362 361 361 361 361 361 362 362 362 363 362 362 361 360 360
331 339 340 325 313 308 306 308 310 314 315 323 323 328 328 330 329 328 330 329 332 330 333 336 331 330 332 332 335 347 348 348 346 344 349 352 353 352 352 354 354 355 354 356 357 358 359 359 363 363 362 364 365 365 365 365 365 365 365 365 365 366 365 365 365 366 366 366 365 365 364 365 364 363 362 362 362 362 362 362 361 361 361 361 362 360 361 361 362 362 362 363 362 362 362 361 360
329 331 333 319 313 309 308 308 311 314 314 321 321 328 329 330 330 328 328 327 330 331 331 334 329 335 330 330 333 343 346 345 346 348 350 352 352 353 353 354 355 355 356 356 358 358 359 359 360 363 362 364 364 365 365 365 365 365 365 365 365 366 365 365 365 365 365 365 365 365 364 364 364 363 362 362 362 362 362 361 362 361 361 361 360 361 359 360 359 360 360 361 361 362 362 361 360
331 329 325 316 311 310 313 310 309 317 316 318 321 328 332 329 328 329 329 330 331 330 330 335 337 335 326 329 339 343 342 345 347 349 351 351 352 353 354 354 354 355 356 357 357 357 358 359 359 360 362 363 365 365 365 366 365 365 365 365 365 365 365 365 365 365 365 365 365 365 364 364 364 363 362 362 362 362 362 362 361 362 361 361 359 359 360 359 359 360 361 361 361 361 361 361 362
332 328 322 314 314 311 312 310 307 312 312 318 324 330 331 329 330 332 332 329 330 328 334 339 337 336 331 334 335 337 341 347 348 350 351 352 353 353 353 354 354 354 356 357 356 357 357 358 359 359 360 361 362 364 365 365 365 365 365 365 365 366 366 365 365 365 365 364 364 364 364 364 363 363 363 362 362 362 361 362 362 362 362 361 361 361 361 361 360 360 360 360 360 361 361 361 361
333 333 320 314 310 308 309 310 308 311 311 318 324 329 329 332 333 333 332 328 329 338 340 342 339 332 326 330 329 335 341 346 349 350 350 351 352 352 352 353 353 354 356 356 357 356 357 357 358 358 361 360 361 361 360 363 365 365 365 365 365 366 365 365 364 364 364 363 364 364 364 364 363 363 363 362 362 361 362 362 362 362 362 360 360 359 360 359 359 360 361 360 361 361 362 361 361
339 335 320 312 308 308 311 309 310 312 313 320 326 330 329 332 335 332 333 335 333 339 339 332 340 331 332 332 333 340 344 347 349 349 349 349 350 351 351 351 352 354 355 356 356 356 357 357 358 358 358 360 360 360 360 361 364 365 365 366 365 365 365 365 364 364 364 363 363 363 364 366 363 363 362 363 361 361 361 362 362 361 361 361 361 358 358 359 360 361 362 361 359 361 361 359 359
342 337 325 317 314 310 310 309 310 309 313 321 328 329 327 328 334 335 340 339 333 333 335 336 335 340 335 336 340 345 347 349 350 348 347 347 348 348 349 350 350 352 354 355 355 356 356 357 357 357 358 359 359 359 359 360 363 364 364 365 365 365 365 364 364 364 364 363 363 362 364 366 361 362 363 362 362 366 361 362 362 361 361 361 360 359 359 359 360 360 360 361 360 362 361 361 362
339 327 322 318 320 318 319 313 311 314 314 322 326 329 329 326 330 334 337 333 334 333 332 336 339 339 341 342 345 347 348 347 348 345 345 344 346 345 345 347 348 347 351 353 356 356 356 357 357 357 357 358 358 359 359 361 362 363 361 362 364 363 364 364 364 363 363 363 363 363 362 365 362 359 360 366 365 366 366 363 361 361 361 361 360 361 360 360 360 359 358 358 360 362 362 365 365
332 319 318 316 318 322 321 318 316 315 314 324 327 329 330 329 330 333 328 328 330 329 331 334 334 338 341 343 345 345 346 345 346 345 344 343 343 342 343 345 346 348 349 352 354 356 356 357 357 357 357 358 357 358 359 360 361 360 360 361 363 364 363 364 362 364 361 360 361 360 364 362 361 360 362 364 366 365 367 363 362 361 362 362 361 360 360 358 360 360 358 358 359 363 366 363 362
337 327 316 317 324 323 322 320 320 322 319 323 325 328 329 330 332 335 327 327 329 327 328 331 332 333 337 341 343 344 345 345 346 344 343 343 343 343 343 344 345 346 348 351 353 356 357 356 356 357 357 358 357 357 358 359 359 359 359 360 360 360 361 363 360 361 360 359 359 358 361 361 362 359 366 365 363 366 364 365 363 361 362 363 363 366 366 365 358 363 360 358 363 365 363 361 361
337 331 323 323 326 324 327 328 327 326 319 323 326 327 326 330 332 331 328 326 326 328 332 331 331 334 338 340 342 343 343 344 345 344 343 343 343 344 344 345 345 347 349 352 353 354 356 356 356 356 358 358 357 358 358 358 358 358 358 359 359 358 359 359 358 359 359 358 358 360 359 361 361 359 358 359 361 360 360 360 361 362 362 360 363 361 361 360 363 359 357 360 357 361 363 361 359
325 331 333 330 327 318 324 322 323 320 319 324 325 325 325 332 332 329 328 322 322 328 333 334 336 338 339 339 341 343 342 343 343 343 342 342 342 343 344 345 347 348 350 350 351 354 355 357 357 357 358 358 358 357 358 360 359 357 357 358 358 358 358 358 358 359 359 358 358 359 362 360 359 359 358 358 359 359 358 358 360 360 360 361 363 361 359 359 359 357 356 356 357 357 358 359 357
323 326 327 330 331 327 330 325 320 319 318 316 322 327 330 330 329 331 329 325 327 334 336 336 338 340 342 342 342 341 342 342 343 343 343 342 343 343 344 345 345 345 348 349 352 353 355 356 357 358 357 358 358 358 358 360 358 357 357 358 357 356 357 357 357 358 359 358 358 361 360 358 358 358 357 357 357 358 358 358 358 359 359 359 361 361 359 358 358 357 355 354 354 355 356 356 356
327 321 323 322 323 323 327 325 323 317 317 317 323 331 328 328 324 330 328 329 331 335 337 338 340 342 343 341 341 341 342 342 343 344 344 344 343 343 344 344 346 347 348 349 351 353 355 355 357 357 357 358 358 359 358 358 358 357 357 361 360 359 358 357 357 358 358 358 359 360 363 358 358 357 357 356 356 357 358 358 358 358 359 359 361 361 359 357 356 356 356 356 355 356 355 355 355
323 322 325 325 326 326 325 323 321 319 318 318 327 327 327 329 327 329 328 330 334 336 339 339 340 341 341 341 341 341 341 342 343 344 345 345 345 345 345 345 346 346 346 347 350 352 354 356 357 356 357 357 358 358 357 357 358 357 357 358 358 361 358 358 358 358 358 359 359 360 363 358 357 357 356 357 357 356 356 357 357 357 358 358 359 359 359 357 355 355 354 355 355 354 353 353 357
322 322 324 324 323 324 324 319 317 316 317 319 325 325 328 329 330 327 330 331 336 338 338 339 339 339 339 340 341 341 341 342 343 343 344 345 346 344 343 344 345 345 346 348 349 350 353 355 355 355 356 357 357 357 356 356 357 357 357 357 358 361 358 358 359 358 358 358 358 359 360 360 358 357 356 357 356 356 356 356 357 357 357 358 358 358 358 357 355 354 354 355 354 353 352 353 358
321 322 322 322 324 324 324 320 320 318 315 318 320 323 325 327 327 319 328 334 337 337 337 338 338 337 338 339 340 341 341 341 342 344 344 344 344 343 343 344 344 345 347 347 348 350 353 354 354 355 356 357 357 356 355 355 357 356 357 357 357 359 359 359 359 358 358 358 358 359 359 361 360 357 357 356 356 356 356 355 355 356 356 356 357 357 358 357 356 355 355 354 354 353 354 353 355
315 315 314 314 314 315 316 313 310 310 312 317 318 319 324 324 325 322 327 335 337 335 335 336 337 337 338 339 339 340 341 343 344 343 342 342 342 343 343 343 344 345 345 346 348 350 352 353 354 355 355 356 355 355 356 354 355 356 357 356 356 358 359 358 358 358 359 358 359 358 359 359 361 359 357 356 356 355 355 355 355 354 355 356 356 356 356 357 358 356 357 357 356 354 354 354 353
314 313 307 307 304 303 305 304 306 310 309 318 317 314 313 317 320 324 331 336 336 335 334 335 336 337 337 338 339 339 340 342 343 342 343 343 344 345 343 345 345 344 346 347 348 350 351 352 353 354 355 355 354 353 354 354 355 356 356 356 357 358 358 358 357 357 358 359 358 358 358 358 361 360 357 356 359 356 355 354 354 356 356 356 355 356 356 357 357 356 356 358 354 354 353 352 349
309 306 301 301 300 299 306 306 306 311 314 318 318 304 307 314 319 328 334 335 335 333 333 335 335 336 337 337 338 339 340 341 342 342 343 344 344 345 344 345 346 346 346 347 348 349 351 353 354 354 354 353 354 353 354 353 354 355 356 356 358 357 357 357 357 357 358 358 358 357 357 358 360 359 358 356 355 356 355 354 354 354 355 356 356 357 356 356 356 356 356 355 357 352 348 344 343
306 307 301 297 296 296 303 308 312 310 316 318 319 307 307 311 315 329 334 335 333 331 333 334 334 335 336 337 337 338 339 341 342 343 344 345 345 346 345 346 347 347 347 347 347 349 351 352 353 352 354 353 355 353 353 353 354 354 355 355 356 356 356 356 356 357 356 357 357 357 357 358 359 358 358 356 354 354 354 354 354 354 355 356 355 356 356 356 356 355 355 354 351 342 341 347 344
300 300 294 292 295 298 303 305 313 310 316 318 316 308 310 310 315 330 333 334 333 330 332 333 334 335 336 336 337 338 339 341 342 343 344 345 346 345 346 346 347 347 347 347 348 350 350 351 353 351 353 352 353 353 353 353 354 353 354 356 355 355 355 355 356 356 356 356 357 356 357 358 359 358 358 356 354 354 354 354 355 356 356 356 356 355 357 355 355 354 354 353 350 339 344 342 343
294 300 295 294 294 295 298 302 310 313 315 316 316 306 309 311 320 330 333 333 332 330 331 332 333 334 335 336 337 337 338 339 341 342 344 345 346 347 346 347 347 347 348 348 348 349 349 350 353 351 351 351 352 353 353 353 354 353 353 354 354 355 354 354 355 356 356 355 356 356 356 358 359 358 358 357 354 354 355 355 355 356 357 356 355 354 356 357 354 354 353 352 345 338 339 341 342
296 294 294 295 297 296 296 299 302 311 315 311 315 312 308 312 324 329 331 332 331 329 331 332 333 333 334 335 336 336 337 338 339 341 343 345 346 347 347 350 348 349 349 349 349 349 349 350 351 351 351 352 352 353 353 353 353 354 353 353 356 354 354 355 355 355 355 355 355 355 356 357 359 358 358 357 355 356 356 356 356 356 356 355 354 353 354 354 353 354 352 343 339 340 340 340 341
295 296 294 294 295 296 297 297 301 312 313 312 313 312 311 318 324 328 330 332 330 329 331 332 332 333 334 334 335 336 336 337 339 341 343 344 345 347 347 348 348 349 349 349 349 350 350 350 351 352 351 351 351 352 353 353 353 353 353 353 353 353 354 354 355 354 355 355 355 355 356 356 358 358 358 357 356 356 357 356 356 356 357 355 353 352 352 353 353 351 351 345 342 337 340 341 342
298 297 296 294 294 296 295 298 300 304 308 310 310 310 312 317 322 327 329 331 329 329 331 332 332 333 333 333 334 335 336 337 340 342 344 345 345 346 347 348 348 349 349 349 350 350 350 350 350 351 351 351 351 351 352 352 352 351 350 351 350 352 353 354 354 354 355 354 355 355 356 356 357 358 358 357 356 356 356 355 356 356 356 354 352 351 350 350 351 349 346 342 338 343 348 342 342
298 296 296 295 295 296 298 299 302 306 309 308 310 312 312 315 322 326 328 330 329 329 329 330 331 331 332 332 333 335 336 337 340 342 343 344 345 346 347 347 347 348 348 349 349 349 350 349 350 348 351 351 350 349 350 350 349 349 350 349 349 350 351 353 353 353 353 354 355 355 356 356 356 358 359 358 356 358 357 356 355 356 356 354 353 352 352 350 350 348 344 346 339 338 339 342 343
300 299 296 296 295 296 300 300 301 304 306 304 309 310 310 313 321 325 328 328 326 327 328 329 330 331 332 332 332 334 336 339 340 340 342 343 344 345 346 347 348 345 347 348 348 348 350 350 349 349 351 351 351 350 350 350 350 350 349 349 350 350 351 351 351 353 353 354 355 355 356 356 356 357 359 358 358 357 356 355 355 355 355 354 353 354 350 351 350 342 341 341 341 339 338 341 343
297 297 297 295 297 298 299 300 302 304 308 302 306 308 310 311 320 324 326 327 328 329 330 330 330 330 331 332 332 333 335 336 337 339 340 341 343 344 345 346 347 347 347 347 348 349 349 350 350 350 351 351 351 352 351 350 351 352 351 351 351 350 353 354 353 354 355 353 354 356 356 356 357 357 358 360 358 358 357 355 355 355 355 355 353 350 350 345 343 340 339 339 338 339 344 346 343
297 294 293 295 298 296 293 297 301 302 303 301 305 306 308 313 319 323 327 327 328 330 331 331 332 330 330 331 332 333 333 334 335 337 338 340 341 343 344 345 346 347 347 347 347 348 349 350 350 350 351 352 352 353 353 352 353 353 353 353 352 352 351 354 354 355 354 353 352 355 357 357 357 357 358 359 360 359 358 356 356 355 354 355 353 351 347 342 341 337 337 341 339 337 334 340 347
296 297 295 296 296 296 297 295 298 300 301 305 306 305 302 310 314 318 324 328 327 328 329 330 331 332 333 333 333 334 333 334 335 336 337 338 339 340 342 344 346 345 346 346 347 347 348 349 350 351 351 351 352 354 354 353 353 352 352 352 353 352 355 352 351 350 351 352 353 354 356 358 358 358 358 359 360 359 359 358 356 355 354 353 353 350 347 343 341 338 338 340 339 338 334 336 341
296 297 298 299 298 297 297 297 298 293 295 298 303 294 295 303 313 316 321 323 324 327 326 327 329 330 331 331 331 333 334 336 335 335 337 338 338 340 341 343 344 345 346 347 348 348 349 349 350 351 351 352 352 353 354 353 352 350 348 347 346 346 346 347 346 347 348 349 350 353 357 358 358 358 359 359 360 360 358 358 357 356 354 352 352 350 348 343 340 337 337 338 338 336 338 336 337
294 298 300 299 298 297 297 296 297 290 291 296 306 295 290 297 306 312 318 321 322 325 325 326 327 329 330 330 331 332 333 334 335 336 337 337 337 338 339 341 343 344 346 348 348 349 349 350 350 351 351 351 353 353 354 354 351 350 349 348 348 347 346 347 350 351 351 351 353 353 355 358 359 359 359 360 360 361 359 358 357 356 355 353 353 349 345 342 341 339 338 337 338 341 337 337 336
295 296 299 298 298 297 296 296 296 293 297 299 300 301 294 293 302 310 316 319 320 321 323 324 326 328 329 330 331 332 332 334 334 335 336 337 337 337 337 340 343 344 346 347 348 348 349 349 350 350 351 352 352 353 353 353 350 350 349 348 349 348 347 347 350 351 352 353 352 353 355 357 359 359 359 360 360 360 360 358 357 356 354 353 353 349 346 343 343 342 341 339 339 341 337 337 336
297 297 297 296 296 296 296 295 294 294 295 292 295 301 293 291 298 308 314 314 316 319 321 323 325 327 328 329 331 331 332 333 334 334 334 336 336 337 338 339 342 344 346 346 347 348 349 349 350 350 350 351 352 353 353 352 352 350 349 348 347 349 349 349 351 352 351 354 352 353 354 355 358 359 359 360 360 360 361 359 357 355 354 352 354 350 346 344 343 341 340 337 336 339 337 338 338
299 297 299 299 299 298 296 293 294 295 291 290 293 297 291 289 292 303 310 313 314 317 321 323 324 326 327 328 330 331 332 333 334 335 335 335 337 337 338 339 340 343 345 347 347 348 348 349 349 349 349 350 351 352 353 352 352 352 349 348 347 347 349 349 350 349 350 351 351 352 354 354 356 357 358 360 360 360 360 360 357 355 354 352 354 351 347 344 343 342 341 339 337 337 337 340 338
298 300 299 298 297 295 296 294 294 292 288 291 295 295 295 289 293 301 304 308 314 317 320 322 324 325 326 328 329 330 331 332 333 334 335 335 337 337 338 337 338 341 343 345 346 347 347 348 348 348 349 350 351 351 352 351 352 352 350 349 348 347 348 348 347 348 348 349 350 351 352 354 355 356 358 359 359 360 359 360 358 356 355 355 354 351 348 345 343 342 341 340 339 337 336 337 343
300 295 295 295 292 292 293 290 292 287 287 291 294 294 295 289 290 298 309 312 316 317 317 320 322 323 324 326 328 330 331 331 332 333 333 334 334 335 336 335 336 338 341 343 344 346 346 347 347 347 348 349 350 351 351 351 351 352 351 350 349 348 348 348 347 347 348 348 350 350 352 353 354 356 357 357 358 359 359 358 359 357 355 353 352 351 349 346 344 342 340 339 339 338 337 339 338
299 294 294 291 282 287 284 287 285 285 286 289 291 294 292 293 294 297 305 311 313 317 319 320 322 323 324 325 327 329 330 331 331 332 333 333 332 333 333 334 335 336 338 341 343 344 345 346 346 346 346 348 349 351 350 351 351 351 351 351 350 350 349 349 348 348 349 349 350 350 351 351 353 353 355 355 357 358 358 357 356 355 354 352 352 350 349 346 343 341 339 338 338 337 336 337 337
296 295 290 288 284 282 279 280 282 282 286 290 291 294 292 292 298 301 303 310 315 316 319 321 322 323 324 325 326 328 329 330 330 331 332 332 333 333 333 334 334 335 337 340 342 343 344 345 346 346 346 348 349 350 350 350 350 351 352 351 351 351 350 349 349 348 349 350 350 350 351 351 352 353 354 355 357 358 358 358 358 356 356 354 352 350 349 346 344 341 339 338 337 337 337 337 338
296 295 294 293 288 283 281 281 283 284 286 290 291 291 286 292 294 303 305 309 315 317 318 320 322 323 324 325 325 326 327 329 330 330 331 332 333 333 333 333 334 334 336 338 340 342 344 344 345 345 345 347 348 349 350 350 350 351 352 352 352 351 350 350 350 350 350 349 350 351 351 353 352 353 354 356 357 357 358 358 358 357 355 353 351 350 349 346 344 342 341 339 338 337 336 337 337
296 297 296 290 293 290 286 284 284 284 284 286 290 288 291 296 299 307 306 307 312 317 318 319 319 321 322 322 322 323 325 327 329 329 330 332 333 333 333 333 333 334 335 337 339 341 342 343 344 345 345 346 347 349 349 350 350 351 351 351 351 352 352 351 350 351 351 351 351 350 351 352 354 354 356 356 356 357 357 357 357 356 356 353 351 349 348 345 343 341 339 338 337 338 336 336 336
293 295 292 296 297 295 292 293 290 290 287 284 289 292 292 296 299 303 305 305 308 314 316 317 318 319 320 320 321 322 324 326 327 328 329 331 332 333 333 333 333 334 334 336 338 341 342 343 344 344 345 346 347 349 349 350 351 351 351 351 351 351 351 350 350 350 350 351 351 351 351 352 354 355 355 356 356 357 357 357 356 356 355 353 351 349 347 346 343 341 340 338 337 338 337 335 337
294 292 295 296 299 297 293 286 287 286 282 283 286 290 289 294 291 302 303 303 306 310 314 316 317 318 318 319 320 321 322 324 327 328 330 331 332 332 333 333 333 333 334 335 337 340 342 343 344 344 345 345 346 348 349 350 350 350 351 351 351 352 351 351 351 350 351 351 351 351 351 351 352 354 355 356 356 355 356 357 356 355 354 352 351 349 347 345 343 341 340 339 338 338 337 337 338
300 296 298 298 288 289 288 289 285 282 283 282 284 288 291 292 293 298 301 303 305 307 311 314 315 317 318 319 320 321 322 323 324 326 327 329 330 331 332 332 333 334 335 336 337 339 341 342 344 344 344 345 346 347 349 350 351 351 351 351 351 351 352 352 352 352 352 350 350 350 350 351 352 354 355 355 355 355 355 355 355 354 353 351 350 349 347 345 343 341 340 339 338 337 337 336 337
302 297 297 298 293 292 287 290 285 288 281 284 283 287 289 294 295 298 302 305 306 307 308 312 315 317 318 319 320 321 321 322 323 325 326 328 330 331 332 332 332 333 334 335 336 338 339 341 343 344 345 346 346 347 349 349 350 351 351 352 352 352 352 352 352 352 351 350 350 350 351 350 351 354 354 355 354 354 354 354 354 353 352 350 349 348 346 345 343 342 341 339 338 337 337 337 337
296 295 293 294 296 294 296 292 292 288 283 281 284 284 288 290 296 301 303 305 307 308 308 311 314 317 318 320 321 321 322 322 323 324 326 327 329 331 332 333 333 334 335 335 335 336 338 340 341 343 343 344 345 346 348 349 350 351 351 351 351 351 351 352 352 352 351 351 351 351 351 351 352 352 353 353 353 353 353 353 353 353 351 349 348 346 345 344 343 341 341 340 339 337 336 337 338
298 297 295 296 293 290 288 286 289 289 287 283 281 286 290 291 300 303 303 305 308 309 310 311 313 316 318 319 321 322 322 323 324 324 325 326 328 330 331 333 334 333 333 334 335 336 337 339 341 342 343 343 344 345 347 349 350 350 350 351 351 352 352 352 351 351 351 351 351 351 351 352 351 351 352 352 353 353 353 352 352 352 351 349 347 346 343 343 342 341 340 340 339 337 337 336 337
Wind_Speed
12 9 7 7 4 4 3 1 1 0 1 2 2 1 1 1 2 2 2 0 2 1 2 3 9 7 2 3 5 5 3 4 1 6 4 1 4 10 8 11 10 8 8 6 4 3 5 8 15 17 17 18 18 18 17 17 17 17 17 17 16 16 16 15 15 15 15 15 15 14 13 13 12 12 12 11 11 11 10 9 9 9 9 9 9 10 9 9 10 9 9 9 8 9 9 8 8
9 8 7 4 5 3 2 1 1 2 0 2 3 1 1 1 1 2 3 4 2 3 3 4 6 6 7 7 10 8 6 6 3 2 3 5 8 6 8 12 12 11 7 6 4 4 3 3 12 15 17 18 17 17 16 16 16 16 16 16 15 15 14 14 14 14 14 14 14 13 13 12 12 11 11 11 11 10 9 9 8 9 9 9 8 9 9 8 8 8 9 8 9 9 8 7 7
8 8 6 3 2 3 1 0 1 0 1 0 2 2 1 1 1 1 3 4 3 7 5 6 8 6 6 4 4 1 1 4 6 4 5 10 12 6 9 10 11 10 9 5 5 4 3 3 10 14 16 17 17 16 16 15 15 16 15 15 15 14 14 14 14 13 13 13 13 13 12 12 11 11 10 10 10 9 9 8 8 8 9 8 7 8 8 8 8 7 7 8 8 8 6 6 6
8 5 6 5 2 1 2 2 0 1 1 1 3 1 2 2 1 2 3 5 5 8 5 6 5 3 4 3 2 6 5 5 4 9 8 9 4 10 9 10 10 9 7 6 5 5 4 8 10 13 16 16 16 16 16 15 15 15 14 14 14 14 14 14 14 13 13 12 12 12 12 11 10 10 10 9 9 9 8 8 8 8 7 6 7 7 7 7 7 7 7 7 8 8 6 6 6
6 4 4 3 0 0 1 1 1 1 0 2 1 4 1 1 2 3 3 6 6 7 5 3 4 4 3 5 0 2 3 6 8 5 6 3 6 10 10 10 10 10 8 7 6 5 5 11 12 15 16 17 17 16 15 15 14 14 14 14 13 13 13 13 12 12 12 12 12 11 11 10 10 9 10 9 9 8 7 7 8 8 7 6 6 7 6 8 7 6 7 6 7 7 6 5 6
6 4 4 2 1 1 1 1 1 2 4 3 0 1 1 2 3 6 7 7 6 4 4 5 3 5 3 3 2 2 8 5 8 5 7 6 11 11 12 10 10 9 9 6 6 5 5 11 16 17 17 17 16 16 15 15 14 14 14 13 13 12 12 12 12 11 11 11 11 11 10 9 9 9 9 9 8 8 7 7 7 7 6 7 7 6 6 7 7 7 7 6 7 7 7 5 5
7 4 2 2 2 1 1 2 3 3 5 5 1 1 3 2 5 8 7 5 3 6 2 3 9 8 6 1 4 4 1 8 7 7 5 10 11 11 11 10 11 11 9 6 6 5 6 14 16 17 16 16 16 16 15 14 14 14 14 13 13 12 12 11 11 11 11 10 10 10 10 9 8 8 8 8 8 7 7 6 6 6 6 6 6 5 5 6 7 6 6 6 6 6 6 6 4
4 1 3 0 1 1 2 2 5 3 1 5 1 3 4 5 8 6 6 4 4 3 3 6 3 5 3 1 3 4 6 3 7 9 10 11 12 12 10 11 11 11 9 6 6 5 11 16 16 16 16 16 16 15 15 14 13 13 13 13 12 12 11 11 11 10 10 10 10 10 9 8 8 7 7 7 7 7 6 6 5 5 5 5 5 5 5 6 6 6 6 5 6 5 6 5 4
4 1 1 1 1 0 2 4 4 2 4 1 3 2 7 7 7 6 5 2 4 4 6 5 3 5 3 7 4 5 5 8 10 11 13 13 14 13 9 10 12 11 10 7 6 5 7 14 15 16 15 15 15 15 15 14 13 13 13 12 12 12 11 11 10 10 9 9 9 9 8 8 7 7 7 6 6 6 5 5 4 5 4 4 4 4 5 5 5 5 5 5 5 6 6 4 4
2 1 2 1 1 3 2 4 0 2 3 4 4 4 8 7 7 4 5 6 5 7 3 3 2 6 8 7 6 4 5 10 13 12 12 13 13 11 10 10 11 12 11 8 6 6 6 14 16 16 14 15 15 15 14 14 13 13 13 12 12 12 11 10 10 9 9 8 8 8 8 7 7 6 6 5 5 5 4 4 4 4 4 3 4 4 4 5 4 4 5 4 4 4 5 5 4
2 1 1 1 1 2 0 3 3 4 1 1 2 6 9 8 8 5 4 5 5 5 4 8 6 9 5 5 3 4 10 11 14 15 14 13 12 12 10 9 10 11 11 9 7 7 7 7 16 17 15 15 15 15 14 14 13 13 12 12 12 11 11 10 9 8 8 8 7 7 7 7 6 5 5 5 4 4 4 3 3 3 2 2 3 3 3 3 3 3 3 4 3 3 3 4 4
2 2 2 2 2 2 3 2 4 5 3 1 2 6 6 10 8 6 7 10 4 7 4 3 6 6 7 5 3 7 11 10 11 13 13 13 10 10 10 8 9 9 10 9 8 7 6 6 7 13 18 16 15 15 14 14 13 13 12 12 11 11 10 10 9 8 8 8 7 7 6 6 5 4 4 4 3 3 3 2 1 1 2 1 2 2 3 3 3 4 4 4 4 4 4 5 2
2 1 2 1 3 1 2 2 4 2 1 1 5 3 9 11 10 8 8 6 6 7 4 2 13 2 4 4 5 9 12 11 12 13 14 11 9 8 8 8 9 9 9 8 8 7 7 6 6 8 11 17 15 15 14 14 13 13 12 12 11 11 10 10 9 8 8 7 7 7 6 5 5 4 4 3 3 2 2 1 1 1 0 1 2 2 3 3 4 3 4 4 3 3 2 4 2
3 3 3 2 0 2 2 3 2 3 1 2 4 7 9 9 6 8 8 8 8 6 2 10 6 8 8 8 6 8 9 13 14 14 11 12 10 9 11 8 9 9 8 8 8 7 7 6 6 6 9 8 7 11 14 14 13 13 12 11 11 10 10 10 9 9 8 7 7 7 6 5 5 4 4 3 3 2 1 1 1 1 1 2 3 3 3 5 4 4 4 4 4 3 2 2 2
2 1 1 1 3 2 2 2 3 4 5 2 5 11 5 3 9 8 13 12 4 3 7 5 5 6 6 10 8 10 12 16 16 14 13 12 11 10 10 8 8 8 7 8 7 7 7 6 6 6 6 5 6 5 5 9 13 13 12 11 11 11 10 10 9 8 8 8 7 7 6 6 5 4 4 4 3 3 2 2 2 1 2 1 2 2 3 2 4 5 5 5 4 3 3 2 2
3 2 1 2 3 1 4 2 0 2 4 3 7 12 6 3 6 10 3 1 4 5 9 5 3 1 5 8 4 12 16 16 16 16 14 14 11 9 9 8 7 7 7 7 7 6 6 6 5 5 6 5 5 4 5 5 10 13 12 12 11 11 11 10 10 9 8 8 7 7 6 4 4 3 5 3 4 3 3 2 2 2 3 3 4 4 4 5 6 7 7 6 4 4 3 2 2
3 2 2 1 5 0 3 1 2 2 2 3 8 12 8 5 4 2 5 6 14 10 4 2 5 1 10 4 14 15 16 14 13 15 14 10 8 7 8 7 7 7 7 7 7 6 7 6 6 5 6 6 5 5 4 4 6 12 10 11 12 11 10 11 10 10 9 7 6 6 5 2 1 0 2 2 3 2 3 3 3 3 4 4 4 4 4 4 5 6 7 8 6 5 3 3 2
4 2 2 3 5 4 5 3 4 1 2 6 10 11 12 9 5 3 8 4 4 7 2 4 6 6 8 10 17 16 16 16 16 16 11 10 9 9 9 8 9 10 8 8 7 7 7 6 7 6 5 6 5 5 4 4 4 8 4 4 5 7 8 9 7 4 6 2 7 4 2 2 2 1 2 2 2 2 3 4 4 4 4 5 4 4 4 3 3 7 7 8 9 6 4 2 2
4 2 3 6 4 5 4 2 3 1 2 8 7 7 13 11 11 6 6 5 10 5 2 5 7 8 12 14 17 17 17 15 16 14 15 15 12 12 11 9 9 9 9 8 7 9 7 6 6 7 6 6 6 5 4 4 4 3 3 3 3 7 5 5 3 4 3 3 2 3 2 2 2 2 1 2 2 3 4 5 5 5 4 7 6 4 3 3 2 2 3 5 7 8 3 1 1
6 3 5 8 5 3 5 3 3 3 2 7 7 4 5 8 7 6 5 11 7 11 10 5 9 11 14 15 17 17 15 15 14 14 16 15 12 13 12 12 10 10 10 9 8 8 8 7 7 7 7 7 6 5 4 4 4 4 4 3 3 3 4 3 4 3 3 3 3 2 2 2 1 1 3 6 6 2 2 4 5 5 5 5 6 3 4 3 4 2 2 3 5 3 2 2 1
4 5 7 4 5 6 9 7 8 9 6 7 6 4 3 8 7 8 10 9 6 6 11 20 15 16 17 18 18 17 17 16 14 14 14 13 11 9 10 10 10 9 8 8 7 8 10 8 7 7 7 6 6 5 5 5 4 4 4 4 4 3 4 3 4 3 3 3 3 3 2 2 1 1 2 2 2 2 3 3 2 2 2 4 4 3 3 3 2 2 2 2 1 2 2 2 2
1 10 7 5 3 1 8 3 4 3 4 9 7 9 7 5 3 7 17 12 9 13 16 12 20 19 20 20 19 17 17 17 18 17 17 16 15 12 10 9 8 7 7 8 9 9 9 9 8 7 7 7 7 6 6 5 5 5 5 4 4 3 4 4 4 3 3 3 3 3 2 2 2 2 2 3 3 3 3 3 2 2 3 3 2 3 3 3 3 2 2 3 3 2 3 3 2
8 4 7 8 7 8 9 2 5 5 2 4 8 11 9 13 7 10 16 13 7 10 13 12 19 22 21 19 19 18 18 17 18 18 17 17 15 12 11 11 11 10 8 8 9 8 9 10 9 8 8 7 7 6 4 5 5 5 4 4 4 4 3 4 3 3 4 4 4 3 3 3 3 2 3 3 3 3 3 3 3 2 3 3 3 3 4 3 2 3 2 3 3 3 3 3 3
8 7 2 4 4 12 13 12 5 4 6 6 7 8 11 12 9 9 14 8 3 7 10 10 12 15 19 19 18 20 19 18 18 17 16 16 15 14 12 14 10 7 8 9 9 9 10 12 10 10 8 8 7 7 6 6 5 5 6 6 5 4 4 4 4 4 3 4 4 3 3 3 3 3 3 3 4 3 4 3 3 3 3 3 2 2 3 3 3 2 3 3 3 3 3 3 3
9 12 7 10 8 12 13 10 9 4 7 4 8 11 13 17 10 11 15 6 5 9 12 12 14 16 16 18 18 17 16 15 16 15 12 9 11 11 10 9 10 9 10 10 8 9 10 10 10 11 9 10 8 7 7 5 5 5 5 5 5 6 5 4 4 4 4 3 3 4 3 3 3 3 4 4 3 3 4 3 3 3 3 3 2 2 2 3 3 2 2 3 2 2 3 3 3
7 13 5 8 8 9 7 6 8 7 2 7 9 12 14 13 6 12 14 5 8 11 13 14 15 16 17 18 19 18 17 18 16 16 15 11 12 14 13 11 11 12 11 10 9 9 8 9 11 12 11 10 9 8 6 6 6 6 6 5 5 5 5 4 4 4 3 3 3 4 4 3 4 4 4 3 3 4 4 4 4 4 3 3 2 3 2 2 3 3 2 2 2 2 3 3 3
3 4 8 12 13 11 7 8 11 6 3 9 12 12 12 8 8 6 3 9 12 13 14 14 16 17 16 16 15 15 17 18 18 14 12 12 13 13 13 12 12 12 11 11 10 9 8 9 10 10 10 9 8 9 7 6 6 6 6 5 5 6 5 5 5 4 4 4 4 4 4 5 5 4 4 4 3 4 4 4 4 3 3 3 2 3 1 2 2 2 2 2 2 3 3 2 2
7 6 7 10 10 10 11 9 13 3 5 12 13 13 9 10 6 11 9 12 16 16 14 16 15 14 15 16 15 13 13 12 12 14 17 16 14 13 14 14 14 12 13 12 10 8 9 11 10 10 9 9 9 8 8 7 7 7 6 5 6 5 5 5 5 4 5 4 4 4 5 4 5 4 4 4 4 4 4 4 4 4 4 3 2 3 3 2 2 1 1 0 1 2 3 2 2
6 6 9 12 6 8 6 7 7 4 5 9 6 5 3 6 17 7 11 13 16 17 16 16 15 14 13 14 13 12 13 13 13 13 16 14 12 12 15 14 14 13 10 11 10 10 11 11 10 10 10 9 9 10 8 7 6 6 6 6 5 6 6 5 5 5 5 4 4 5 5 5 5 5 4 5 5 4 5 4 4 4 4 3 3 3 3 2 1 0 1 1 2 1 2 3 2
1 1 3 6 5 7 11 2 4 5 3 12 11 3 9 16 9 10 13 14 13 14 14 15 13 13 12 13 13 12 12 13 14 14 13 13 13 14 14 14 14 12 10 9 11 12 10 8 8 8 10 10 10 9 8 7 7 7 6 6 6 6 5 5 5 5 5 5 5 6 5 6 5 5 5 5 4 4 4 4 5 5 4 3 2 2 2 1 1 0 1 1 2 2 3 2 3
2 3 2 5 4 7 3 1 0 4 4 14 10 9 7 10 7 9 14 17 19 16 15 15 14 13 12 13 13 13 14 14 16 15 14 13 12 12 13 13 13 12 9 10 14 13 12 10 9 8 10 10 10 10 9 8 7 7 7 6 6 6 5 5 5 4 5 5 5 5 6 6 6 6 6 6 5 4 4 5 5 5 3 3 3 2 2 1 1 1 0 1 2 2 2 2 2
0 4 4 3 4 9 5 2 5 4 1 9 7 7 10 8 10 13 15 16 18 16 16 16 15 14 14 13 13 13 13 12 12 13 14 14 13 12 14 14 14 14 14 13 12 11 12 11 10 10 11 11 11 10 9 9 8 7 7 6 6 6 6 6 6 5 5 5 5 6 6 6 6 7 6 6 5 5 5 5 5 4 4 3 3 2 2 3 2 1 1 0 2 1 2 1 2
1 6 4 4 1 6 9 2 3 7 3 4 12 6 4 2 6 12 13 17 16 15 16 16 17 16 15 14 13 12 12 12 12 14 14 13 13 12 13 13 14 15 13 13 13 13 12 12 12 12 13 13 12 11 10 8 8 8 7 7 7 6 6 6 6 6 6 6 6 6 6 6 6 7 6 6 6 5 5 5 5 4 3 4 3 2 2 2 2 2 1 1 2 2 1 1 2
5 1 4 4 6 3 5 6 2 5 5 5 9 9 4 2 11 13 13 16 15 13 16 17 16 14 14 12 11 12 14 14 16 16 16 15 12 14 12 13 14 13 13 14 13 14 14 12 12 12 11 12 11 10 10 9 8 7 7 6 6 7 7 6 6 6 6 6 6 6 6 6 6 7 6 6 6 5 5 5 4 4 4 3 3 2 3 1 1 1 2 0 1 2 2 1 2
4 3 3 6 2 5 8 4 1 2 3 4 8 11 8 0 7 15 17 16 17 17 17 17 16 14 14 14 13 13 13 15 17 15 17 16 15 14 13 13 12 12 11 13 12 11 10 11 10 11 11 11 11 10 9 8 7 6 6 6 7 7 6 6 6 6 6 6 6 6 6 6 6 7 7 6 6 5 5 5 4 4 3 3 3 2 2 2 2 2 3 2 1 2 2 0 2
6 7 7 4 5 6 5 5 4 2 2 6 5 10 14 4 8 9 12 15 16 15 12 11 12 13 13 14 14 14 14 17 14 14 15 14 14 14 13 12 12 12 11 11 12 12 12 11 10 9 10 10 9 9 8 8 7 7 7 6 7 7 7 7 7 7 6 6 6 6 6 7 7 7 7 7 7 6 5 5 5 4 4 4 4 3 3 3 4 3 4 4 3 1 1 1 1
2 2 1 5 5 7 4 4 6 1 1 7 9 11 12 8 12 14 14 13 11 10 13 13 13 14 14 14 15 16 16 18 13 14 14 15 15 14 13 12 12 13 12 13 13 13 13 13 12 13 11 10 10 10 9 9 9 8 7 9 9 8 7 7 7 6 6 6 7 7 7 7 7 7 7 7 7 6 6 5 5 4 4 4 4 5 5 4 4 4 3 2 4 2 2 2 0
6 5 4 8 5 10 4 3 3 2 3 3 4 7 9 7 7 10 10 13 16 16 14 15 16 16 15 17 17 17 18 7 8 11 13 13 13 14 13 12 13 15 13 14 15 15 14 14 14 13 10 11 11 11 10 9 9 9 9 8 7 7 7 8 7 6 7 6 6 7 7 7 7 8 7 7 7 7 6 5 5 6 5 5 5 4 3 3 3 3 4 3 1 3 3 1 3
4 7 6 5 10 5 5 6 6 5 2 8 4 5 9 8 7 7 13 18 16 17 20 22 21 19 16 16 17 16 11 12 13 15 15 15 17 16 14 13 13 16 15 16 16 14 14 14 13 12 12 12 11 11 10 11 9 9 9 6 8 6 5 6 6 6 6 6 7 7 7 7 8 7 8 7 7 7 7 6 6 5 5 4 4 4 4 4 4 5 6 5 2 1 1 1 3
7 6 5 11 2 1 5 2 1 1 4 2 2 6 6 0 5 10 12 13 10 14 16 15 16 19 20 21 20 17 16 14 17 17 18 17 17 16 15 15 15 14 13 14 15 16 14 14 13 13 13 13 12 12 12 10 10 8 7 5 5 6 5 4 5 5 6 6 8 8 7 8 8 8 8 8 6 7 7 8 6 5 6 5 6 5 5 5 4 4 4 4 4 2 1 1 1
5 8 6 8 5 5 4 4 4 2 3 2 1 3 5 2 4 6 10 11 7 8 8 8 9 12 13 11 10 13 18 18 17 16 16 17 18 18 19 16 14 14 15 15 15 15 12 16 16 16 14 14 13 13 13 10 8 8 6 4 4 4 2 5 5 7 7 8 7 7 9 8 8 8 8 8 7 8 7 7 6 6 6 6 5 5 5 6 6 5 5 5 5 4 3 2 1
6 6 11 10 3 3 1 2 2 4 7 1 4 3 4 5 11 14 10 10 13 10 13 15 14 13 13 14 16 14 13 13 16 18 20 21 20 17 16 16 17 16 16 16 16 16 15 15 15 15 12 12 13 14 13 11 11 11 9 9 9 8 9 8 11 11 8 9 10 6 5 7 7 7 7 7 7 6 7 7 7 6 6 5 5 6 5 4 5 5 5 6 6 4 4 3 2
6 9 10 7 5 4 2 2 1 3 4 4 1 8 7 4 5 8 6 13 17 12 15 16 14 14 15 15 15 15 16 15 14 13 13 15 17 18 18 19 19 18 18 16 15 16 17 15 15 15 14 12 12 12 13 12 11 11 13 13 12 11 11 10 7 6 8 7 5 7 7 7 8 7 6 6 7 7 6 6 7 6 6 6 5 5 5 6 6 6 4 4 6 5 3 4 4
11 3 8 6 7 6 5 5 7 7 2 6 3 2 3 6 7 7 7 12 15 16 16 15 15 16 17 16 16 16 16 16 16 17 18 18 17 19 21 21 19 21 19 16 16 15 17 17 16 16 14 13 12 12 14 14 13 13 13 12 11 11 12 11 8 6 5 6 7 7 6 7 7 7 7 7 6 7 6 6 6 6 6 6 5 6 7 6 5 3 4 5 4 5 6 5 5
3 4 8 5 6 5 5 6 6 5 2 9 3 4 5 6 8 4 11 8 10 16 17 17 17 18 18 18 17 18 17 18 18 16 17 19 19 19 19 19 21 20 17 17 18 18 17 17 17 16 16 14 13 15 15 15 14 14 14 12 12 11 11 8 5 5 6 7 8 6 7 7 6 6 7 7 7 7 7 7 7 7 7 6 5 5 5 6 7 7 6 5 6 5 5 5 4
4 3 2 1 0 1 4 4 4 2 2 11 9 7 6 8 7 2 4 12 15 18 20 19 18 19 19 18 18 18 16 15 16 18 17 17 19 19 19 19 18 18 17 17 17 16 16 15 16 17 17 14 13 15 15 16 16 13 12 13 14 12 9 7 6 7 7 7 8 8 8 7 6 5 6 6 7 7 7 7 6 7 7 6 5 7 6 6 6 7 7 7 6 6 4 5 6
4 5 5 4 2 1 2 2 3 0 9 13 9 7 9 9 7 8 9 10 14 13 11 11 12 14 15 16 17 17 17 16 15 17 17 17 17 18 17 17 18 16 14 14 14 14 14 15 17 18 19 15 15 16 17 17 16 14 14 15 16 15 12 10 8 7 7 7 8 8 8 8 6 6 6 7 8 9 9 8 7 7 6 6 6 7 7 7 7 7 6 6 6 7 6 6 5
5 3 5 0 7 2 3 0 2 6 13 6 7 8 9 11 5 5 9 9 17 17 18 18 18 19 18 17 18 19 18 17 16 16 16 16 15 15 14 16 15 15 14 14 14 14 14 14 15 17 17 16 15 15 16 16 15 16 15 15 16 15 13 11 12 12 10 11 10 9 8 6 6 5 6 7 8 10 8 8 8 6 6 7 7 6 6 7 6 6 6 6 6 6 5 5 6
8 5 5 9 3 1 5 3 7 10 11 3 6 7 1 18 4 6 10 12 12 16 17 19 20 20 20 19 19 18 18 17 16 17 16 16 17 17 18 18 15 14 15 17 17 16 15 15 16 17 17 17 15 15 16 16 15 15 15 15 15 12 12 13 12 11 10 10 9 9 8 9 7 6 7 9 10 11 9 8 8 8 7 7 7 7 6 7 7 7 7 7 6 7 7 7 6
9 10 8 8 6 6 6 3 1 4 7 5 3 5 10 3 6 13 11 14 15 16 17 17 20 23 23 22 20 19 18 18 19 18 17 17 18 18 19 19 18 17 17 17 17 16 15 15 17 18 19 17 16 15 16 16 17 16 15 15 14 12 13 13 12 12 11 10 9 10 10 10 9 10 9 10 8 9 9 9 9 9 8 7 7 7 7 7 7 7 7 7 7 7 6 7 7
9 4 10 9 4 4 6 5 10 8 8 2 1 5 6 6 7 11 16 14 15 15 17 17 18 20 21 22 21 20 18 18 18 17 18 19 19 19 18 18 17 17 18 18 16 16 15 15 17 19 18 18 18 17 16 17 16 16 15 14 13 12 12 12 12 11 11 11 10 10 10 9 9 9 10 9 7 7 9 9 9 8 7 7 7 7 6 7 7 6 6 7 6 6 7 7 7
5 6 5 4 17 8 3 5 3 3 3 4 2 6 5 7 3 4 8 12 12 14 16 15 16 16 15 14 13 13 16 18 17 18 18 19 19 18 17 16 17 16 18 17 18 17 16 17 17 18 20 18 18 18 17 17 17 15 16 15 15 14 12 10 10 9 10 11 11 11 11 10 10 9 8 7 9 9 9 10 9 9 9 8 7 8 8 7 7 7 6 6 7 4 7 8 7
5 10 12 14 7 5 4 3 2 1 2 8 2 4 6 7 6 6 6 6 12 12 14 15 16 17 16 15 12 14 16 17 17 19 18 20 18 17 18 18 17 17 16 17 18 18 20 18 17 18 18 17 18 19 19 17 16 16 16 16 15 14 13 13 13 13 13 11 11 11 11 11 9 8 8 8 8 8 8 9 10 10 9 9 9 8 8 8 8 7 7 7 7 6 7 8 6
7 8 10 3 3 5 6 6 1 3 6 6 1 5 4 2 10 2 5 6 12 10 14 16 17 17 15 14 13 14 16 19 21 21 19 20 20 21 20 18 19 19 20 20 20 19 18 18 18 19 18 19 18 18 18 17 17 17 16 16 16 15 15 15 13 13 12 10 10 10 9 9 10 10 9 8 8 9 8 10 10 10 9 10 10 7 8 8 8 7 8 8 8 7 7 6 6
11 9 6 9 2 8 2 2 10 5 7 3 4 2 6 9 7 1 7 7 11 11 11 11 14 14 15 15 16 15 15 13 12 16 16 16 17 19 19 20 20 20 20 20 20 19 17 16 17 18 20 21 21 18 17 15 15 13 13 16 17 16 14 13 13 12 11 11 12 11 11 12 10 9 9 9 9 10 9 9 10 10 10 9 8 8 8 8 8 8 7 7 7 7 7 7 6
2 7 8 4 5 3 6 8 2 4 7 2 5 1 11 7 7 8 9 11 13 12 11 14 16 17 16 15 16 16 14 14 17 17 18 19 20 21 22 21 21 20 19 18 18 16 18 18 18 18 17 16 14 15 15 16 16 15 14 14 14 14 14 13 13 13 12 13 13 13 12 11 11 10 10 10 10 10 10 9 10 11 11 7 8 7 8 8 8 8 8 7 7 8 8 8 7
8 5 6 1 1 2 5 1 8 6 3 5 3 7 6 6 7 10 10 12 13 13 14 14 15 16 17 17 18 15 15 15 16 17 18 19 19 19 20 20 20 19 18 17 17 18 19 18 18 18 18 18 17 17 17 16 15 15 15 15 15 14 15 13 13 13 13 13 12 12 12 11 9 10 10 11 11 11 11 11 10 10 10 10 10 9 8 8 8 10 9 9 8 8 9 7 7
12 12 12 10 8 4 7 9 1 3 6 5 3 14 4 5 4 9 10 11 12 12 11 11 11 12 12 13 14 16 14 13 14 15 16 17 18 18 19 18 16 15 16 16 16 16 17 17 17 18 17 16 18 17 16 16 14 14 16 16 16 14 14 13 14 14 14 13 12 12 12 11 12 11 11 12 13 11 11 11 10 11 11 11 11 10 9 8 8 9 10 7 7 8 10 9 7
Wind_Direction
156 165 165 179 175 167 121 248 336 35 351 284 323 29 299 52 117 99 102 203 120 247 148 131 131 148 165 189 160 113 17 158 207 144 213 168 123 134 135 128 127 131 138 141 150 133 140 156 153 134 132 133 132 132 130 127 123 118 117 118 118 118 118 117 117 118 116 114 112 110 108 106 103 102 103 102 100 97 94 94 92 90 87 84 82 82 85 75 77 77 71 69 72 77 78 80 87
156 153 163 163 172 150 180 224 79 337 360 357 268 129 272 138 85 166 160 186 190 153 128 99 109 73 62 110 131 127 51 30 28 92 85 117 115 117 142 137 137 140 139 141 139 134 132 154 145 138 135 133 132 132 130 126 121 118 119 120 119 117 116 117 118 117 117 116 113 111 110 107 107 106 107 106 106 105 103 100 98 92 89 84 80 83 82 81 75 72 77 74 70 59 60 73 75
153 149 148 155 134 227 354 117 327 338 64 341 282 215 137 73 173 162 170 174 127 126 120 110 104 90 101 105 103 5 185 65 92 117 111 139 131 159 146 139 135 135 135 136 140 137 129 154 152 140 138 134 133 132 130 126 122 122 122 122 120 119 120 122 121 121 119 117 113 112 111 111 110 111 110 110 109 109 108 103 95 88 83 82 82 82 84 80 78 77 83 86 84 79 70 68 69
140 154 150 178 154 224 342 30 114 137 82 218 306 275 178 177 185 164 162 140 124 129 129 132 110 289 135 45 105 78 88 114 143 139 140 165 179 144 144 138 130 129 130 138 144 138 134 156 154 145 140 137 136 135 133 129 125 123 124 124 121 122 124 123 123 122 120 115 114 115 115 116 119 120 119 116 112 110 108 103 95 93 94 90 81 75 84 83 75 69 72 77 86 84 82 71 68
136 150 161 190 296 92 114 188 180 100 62 210 203 282 226 198 95 107 86 118 129 136 149 113 82 22 71 98 109 124 191 101 133 151 136 120 117 141 139 134 129 132 137 143 142 138 149 160 156 149 144 142 140 139 136 132 128 127 127 126 125 124 124 123 121 120 117 118 121 120 120 123 125 124 121 118 114 111 107 104 103 104 97 93 88 77 71 81 79 73 65 71 86 106 99 89 87
118 155 210 325 104 82 86 333 249 235 220 154 249 254 221 146 116 105 102 109 129 117 121 88 129 148 46 4 11 101 133 148 161 154 154 145 142 144 139 133 130 133 138 139 138 136 157 164 156 151 148 146 143 141 138 135 133 131 129 129 128 127 126 124 123 123 122 125 127 127 125 128 130 126 124 120 118 115 112 106 101 95 94 86 75 61 67 72 81 73 76 63 62 64 85 86 92
146 155 200 232 257 127 256 219 266 216 275 169 194 223 160 137 119 118 125 101 36 80 47 105 112 103 85 120 81 94 66 118 160 157 153 142 135 141 139 135 132 135 140 139 139 137 155 160 159 154 151 149 146 142 140 137 136 135 133 132 131 132 129 128 128 129 130 131 132 130 131 134 132 129 127 122 119 116 113 110 105 99 90 87 91 84 66 66 67 68 70 72 76 69 58 77 92
160 242 167 331 26 331 262 266 250 184 270 182 219 146 145 139 128 142 149 126 162 124 112 137 119 91 69 144 127 98 89 70 97 111 121 139 140 140 140 138 135 141 141 140 139 143 160 167 160 155 153 152 147 144 142 140 139 139 138 136 136 136 135 134 134 135 136 136 136 135 138 139 137 133 127 124 118 116 115 112 106 98 92 83 79 80 71 63 62 63 66 65 70 85 69 62 60
159 223 43 241 293 359 290 238 249 210 281 286 271 169 138 135 137 139 150 101 91 101 130 136 144 95 122 92 84 95 87 102 103 119 137 141 145 143 142 142 141 145 146 143 144 143 160 166 160 156 154 154 152 147 146 145 144 144 142 140 140 141 140 140 140 140 140 141 141 140 142 143 140 136 132 124 122 119 116 116 109 101 93 81 68 59 59 56 57 59 61 63 58 78 106 84 67
146 283 137 47 89 290 290 289 343 219 214 225 189 161 138 140 135 141 130 129 141 123 101 87 86 111 122 102 113 116 127 117 120 130 142 145 146 141 140 144 143 143 146 147 147 151 167 166 162 157 160 158 157 151 150 149 149 148 146 145 146 146 145 146 145 145 143 146 144 146 147 146 146 140 134 129 124 122 118 113 108 105 98 84 67 54 51 51 41 46 49 47 51 44 73 104 88
105 215 297 307 38 298 289 287 243 303 250 204 153 152 141 140 141 141 142 126 135 127 120 110 82 124 119 97 59 100 129 124 133 146 150 147 145 143 140 139 142 145 147 147 150 154 165 172 164 160 162 165 164 155 154 155 154 152 151 150 151 150 149 150 151 149 149 150 152 154 152 152 150 147 139 131 130 126 123 115 101 97 94 81 68 54 36 46 49 43 45 44 41 42 52 74 108
113 193 142 211 218 198 251 230 292 267 287 159 88 146 150 142 138 148 147 145 139 132 156 168 151 134 92 114 121 134 132 132 138 145 149 147 144 141 139 136 141 142 144 144 149 154 167 161 171 167 165 166 167 160 159 159 158 157 156 154 156 155 154 156 156 156 155 156 159 158 159 156 156 155 146 141 133 137 128 122 120 94 78 67 55 44 22 11 11 12 24 40 24 34 43 37 82
135 123 141 102 235 157 246 297 260 213 84 191 152 169 138 147 172 164 156 126 139 134 175 226 144 163 108 121 126 137 144 144 143 149 149 148 142 137 132 136 139 138 144 146 149 157 163 167 167 164 169 168 167 165 164 163 162 161 161 160 161 160 161 162 161 163 163 165 164 165 164 164 163 164 166 158 159 159 155 149 154 147 61 30 19 16 7 5 357 0 7 4 13 8 24 89 3
139 186 129 254 9 249 251 248 304 142 220 217 134 146 151 159 173 153 135 143 169 167 140 131 132 107 92 118 142 151 155 151 148 149 149 147 143 138 141 137 138 142 148 150 152 155 160 165 167 165 169 170 167 169 170 168 167 166 165 165 165 167 167 168 169 169 170 171 171 169 171 173 173 180 188 189 188 191 200 225 249 300 288 1 17 342 344 353 353 340 340 349 352 358 7 40 58
218 190 114 201 318 344 243 181 210 168 218 172 160 145 155 169 140 150 166 152 172 109 118 105 159 111 194 166 170 170 160 157 151 147 148 145 145 142 139 137 139 144 149 154 150 153 160 163 162 165 163 159 163 168 165 175 173 171 169 170 172 171 174 175 176 175 177 178 177 175 180 182 185 191 210 209 217 220 213 238 274 317 311 211 267 291 318 293 332 344 343 338 338 333 336 10 59
219 14 60 348 291 309 278 212 279 141 235 168 171 141 129 85 141 152 194 99 124 127 143 153 231 172 156 185 153 153 152 152 153 153 151 149 148 141 134 140 143 149 155 157 157 160 159 162 156 159 159 162 159 158 162 171 181 175 175 176 176 177 180 180 181 183 185 186 185 186 186 192 195 209 216 226 233 232 236 234 263 287 282 321 315 330 333 347 343 355 337 327 320 317 316 4 44
188 76 293 43 288 123 266 188 103 195 252 151 157 149 146 150 138 59 87 104 132 161 168 166 184 97 158 154 140 140 146 148 147 150 151 146 143 138 141 144 150 158 164 165 165 163 164 163 162 156 163 162 156 153 159 160 187 182 182 181 181 184 185 187 188 189 191 193 192 193 194 166 75 28 313 2 253 285 256 256 264 269 305 305 311 323 331 352 348 351 348 330 317 306 333 337 34
147 170 139 244 234 256 232 216 181 207 168 159 166 166 133 141 169 140 98 73 97 136 86 110 35 59 115 126 129 140 146 152 154 154 152 150 153 155 158 160 163 171 169 167 169 168 166 167 166 163 163 165 154 153 158 168 178 188 173 184 184 188 189 192 191 181 192 170 199 198 148 155 135 75 278 302 348 304 319 277 274 286 300 303 302 313 344 1 7 23 344 329 331 318 323 30 21
193 170 153 242 201 229 186 211 206 63 301 167 169 169 155 168 145 179 120 144 147 125 96 95 91 91 109 128 134 144 155 158 157 158 159 161 164 166 167 165 171 170 175 172 172 174 170 166 166 169 169 166 155 158 159 162 159 170 183 178 175 190 192 190 169 186 146 166 163 147 152 157 132 175 170 242 243 261 258 270 280 296 320 304 310 327 313 343 5 109 294 294 279 287 317 14 352
225 202 227 242 223 269 261 252 266 296 162 157 158 189 155 151 144 168 143 156 161 158 142 116 137 140 139 139 143 151 158 157 157 160 163 165 167 170 170 171 173 179 176 177 173 173 171 170 171 171 171 166 162 163 154 155 152 161 171 176 174 172 181 166 159 162 154 155 147 125 133 155 136 78 269 259 258 293 310 286 285 285 287 294 312 350 349 358 308 334 293 269 302 310 307 327 324
181 201 218 235 228 234 263 220 246 262 139 152 159 137 125 175 156 162 140 133 214 233 192 161 172 157 149 151 151 156 161 161 161 163 163 164 166 172 174 175 176 174 176 169 169 176 174 170 168 173 169 166 165 169 165 164 153 158 166 176 168 162 166 147 152 150 152 153 142 136 129 159 120 142 307 335 331 323 342 316 317 318 334 316 316 336 333 323 326 305 291 282 243 289 312 307 354
174 220 234 256 316 266 245 166 169 234 161 147 156 150 200 142 147 161 159 166 198 205 207 191 153 153 153 157 159 159 163 165 168 169 174 172 169 170 168 169 170 172 171 175 179 177 175 172 172 172 170 172 172 172 168 170 160 168 176 174 167 158 160 156 149 156 152 160 148 142 132 151 178 257 308 304 295 301 295 306 287 291 296 289 310 304 310 318 313 315 309 305 310 324 327 324 330
246 250 239 236 245 258 280 146 177 174 235 139 167 194 138 172 184 183 177 190 225 211 180 165 161 160 159 153 155 162 166 169 171 171 172 174 171 172 172 172 173 175 179 180 175 178 175 175 174 173 178 176 176 167 156 168 167 171 169 167 161 172 160 158 163 163 168 167 166 160 162 182 208 219 267 274 283 289 275 278 277 283 276 279 291 296 297 313 318 311 313 306 311 326 327 341 326
240 253 215 246 208 237 263 277 219 181 165 208 190 121 168 174 191 180 199 215 34 126 151 151 146 143 148 155 167 166 169 170 174 174 173 177 173 170 170 175 176 171 177 178 179 179 179 181 175 175 179 177 176 175 169 177 165 168 180 184 179 175 163 176 175 178 164 175 176 175 180 184 191 223 247 252 259 287 272 268 289 283 269 261 266 254 288 303 309 304 309 311 329 357 348 333 334
221 251 243 264 266 263 267 268 279 224 212 180 142 158 190 190 181 150 217 202 98 114 129 140 148 151 157 157 164 167 168 170 171 172 172 173 166 164 167 174 175 174 184 181 178 179 183 179 175 179 181 181 179 174 179 176 170 169 176 180 177 190 182 190 182 169 178 180 179 180 191 189 199 224 235 243 253 263 270 274 271 270 273 268 268 269 239 284 291 302 312 312 345 357 345 324 319
220 245 274 262 253 261 265 287 271 259 217 161 162 191 198 194 91 192 201 150 134 124 130 144 153 156 165 168 167 168 172 174 169 170 174 168 165 166 175 177 177 184 188 178 177 184 180 176 179 183 183 182 180 179 180 176 178 180 184 184 180 193 193 185 178 180 179 179 194 189 204 196 204 211 232 241 231 257 265 274 267 263 261 267 247 252 219 236 272 302 316 333 352 356 333 312 327
197 247 251 260 262 267 265 251 268 258 213 168 185 200 198 182 152 247 146 152 131 134 141 149 160 168 169 169 171 174 171 174 175 166 164 169 172 175 176 177 182 185 179 185 184 183 179 178 183 182 181 179 174 184 181 183 179 187 186 181 183 195 188 187 194 192 188 191 197 199 203 221 221 208 221 228 229 244 260 262 259 261 263 247 217 243 226 231 260 270 341 340 351 337 302 313 330
285 277 286 270 268 262 262 265 264 297 270 180 188 203 181 182 205 213 158 152 147 144 153 158 166 173 172 172 172 174 177 172 166 170 174 174 180 178 178 181 183 181 184 188 186 178 179 185 184 184 180 180 178 184 185 184 187 189 186 181 191 193 184 191 194 194 207 204 201 205 207 210 229 219 214 223 218 229 241 243 249 241 247 247 219 232 235 232 240 360 90 34 301 305 318 327 328
264 267 280 283 303 294 246 235 253 165 255 174 151 74 153 178 219 172 148 150 151 153 160 164 169 176 176 175 172 175 178 174 176 180 185 182 177 180 183 184 179 181 188 184 180 179 186 185 185 186 181 182 182 185 185 185 185 186 188 190 191 191 194 190 197 202 203 204 205 209 210 210 218 220 216 216 227 223 234 244 248 238 241 231 210 216 226 242 223 59 35 3 317 341 341 334 340
10 291 201 302 323 303 282 190 240 177 242 147 134 206 216 212 202 141 154 154 149 149 162 169 170 176 178 178 177 177 177 177 185 187 182 182 181 183 183 182 182 181 178 180 178 187 185 185 186 184 185 187 187 187 185 184 187 190 192 189 191 188 193 195 201 198 205 209 204 212 213 209 217 218 216 223 220 228 231 236 242 249 240 227 211 201 219 195 159 108 355 341 341 353 337 331 357
225 266 134 243 301 263 299 155 199 165 184 166 158 218 241 219 201 166 162 156 158 163 169 174 173 176 181 183 180 182 186 186 186 183 184 183 182 183 183 179 182 180 174 180 187 185 182 184 183 187 188 189 188 190 189 190 187 189 189 190 191 191 193 200 200 200 206 211 205 216 212 211 216 219 217 219 222 217 228 232 233 238 223 202 207 207 196 146 173 197 182 339 334 9 7 335 341
27 6 273 332 186 273 267 241 152 179 211 190 156 239 236 207 191 173 167 167 162 166 172 176 177 179 181 186 185 184 188 186 188 187 186 183 181 182 182 183 182 182 183 182 182 180 186 184 185 187 186 190 192 191 193 191 190 190 190 192 191 191 197 201 202 205 207 206 207 213 210 211 215 218 217 211 222 214 218 225 233 223 210 189 203 179 153 204 206 180 249 180 325 328 15 329 349
2 181 267 278 227 254 341 284 233 213 125 204 179 230 37 268 179 172 173 169 172 166 175 179 181 181 182 186 188 184 180 189 190 190 188 185 186 186 186 183 185 186 180 178 181 180 185 185 185 188 188 190 191 193 192 191 188 189 192 195 193 193 199 204 203 205 208 206 206 211 207 210 219 218 216 208 214 219 215 226 229 211 189 197 190 172 189 178 181 250 2 58 169 188 136 304 335
258 48 214 217 228 275 272 292 326 215 153 199 234 233 218 251 163 172 176 175 172 174 179 182 183 182 184 185 191 189 190 188 193 190 189 186 186 187 185 188 186 182 184 183 181 181 184 183 187 190 188 190 191 192 191 190 191 189 192 196 196 199 204 202 203 202 209 209 201 211 204 209 217 217 216 209 213 220 216 222 226 203 186 179 179 170 200 211 221 214 255 52 176 142 188 141 313
193 222 245 284 280 224 236 267 252 84 242 208 215 233 241 352 179 172 179 179 177 182 182 182 183 183 183 185 190 195 195 196 200 192 187 186 184 186 186 185 184 183 185 183 181 181 180 184 186 190 189 187 190 190 190 190 188 190 191 194 203 206 206 205 202 205 209 206 206 208 204 207 214 213 212 208 211 215 209 211 216 200 175 165 155 186 211 225 226 220 235 234 187 213 205 141 215
183 181 206 199 235 258 223 250 274 244 253 234 214 219 231 194 193 189 179 179 183 190 180 178 184 186 187 188 190 193 200 208 201 191 188 187 186 184 186 183 183 185 184 182 181 181 183 184 187 190 191 186 184 186 185 190 189 192 194 196 208 211 207 205 207 211 205 210 209 207 208 209 211 210 208 204 206 207 202 205 210 186 177 162 172 194 219 216 219 219 233 204 192 270 221 146 158
193 136 154 230 235 272 270 277 269 221 203 226 222 228 233 207 190 189 185 179 189 181 178 183 187 188 191 195 193 197 203 208 192 191 190 189 188 186 185 181 184 184 185 182 183 187 185 185 183 192 190 182 183 186 190 189 191 194 201 203 207 203 204 203 209 209 210 212 209 208 208 211 209 210 208 198 203 203 200 200 199 192 170 172 181 207 207 203 204 192 189 170 154 184 294 128 181
221 244 242 263 231 255 251 279 306 335 186 291 259 243 241 219 207 191 178 181 191 187 185 189 191 193 194 195 196 199 207 179 174 189 196 193 193 190 186 185 184 184 190 184 189 190 189 187 190 190 183 187 191 191 190 192 196 198 195 202 200 202 199 203 211 209 212 208 210 212 212 211 210 208 206 199 201 196 192 192 196 199 174 188 199 194 191 207 196 163 154 114 33 176 225 144 160
203 215 233 255 253 259 280 252 246 250 218 261 267 225 240 222 189 187 190 194 196 192 188 191 188 191 194 198 201 200 186 190 189 196 192 194 193 191 190 189 191 191 187 188 192 190 189 192 194 187 189 189 193 190 191 197 195 197 195 192 194 205 211 208 208 210 202 203 209 210 211 211 209 211 206 197 196 194 196 192 202 192 184 182 180 193 194 207 191 185 177 168 160 62 267 220 160
193 199 195 232 232 199 297 308 13 288 189 258 264 226 267 55 164 192 211 209 208 206 203 200 191 189 193 197 196 192 192 189 194 192 193 193 193 192 192 194 193 190 191 193 191 192 191 195 192 192 193 193 191 193 197 195 194 194 195 186 187 196 197 191 196 204 210 207 214 208 209 206 206 208 202 196 193 195 193 199 195 180 186 185 185 185 192 209 185 187 181 180 134 158 318 295 135
215 197 210 234 209 235 195 253 310 280 283 265 353 340 318 207 176 211 210 204 215 221 226 220 210 215 215 213 206 200 194 192 195 194 194 193 193 195 195 193 188 192 194 195 193 192 194 195 193 193 193 193 194 194 192 186 183 187 187 172 162 188 189 178 187 209 208 212 215 208 213 200 201 204 198 194 189 193 196 201 191 185 177 181 175 188 189 201 191 190 180 167 170 171 229 257 320
240 223 213 226 180 229 303 318 358 13 315 287 170 335 290 246 208 204 191 186 212 205 205 212 206 205 202 205 207 205 207 203 198 196 195 193 194 193 194 192 193 196 197 197 193 194 195 196 194 194 195 194 195 193 187 180 188 188 179 185 193 195 206 198 205 204 197 203 212 209 208 201 199 201 196 192 190 187 194 199 196 178 179 171 185 190 187 179 187 189 193 182 186 194 177 177 239
210 238 189 206 200 200 176 225 65 287 244 279 111 203 270 328 257 231 186 200 206 201 209 210 205 204 204 209 206 204 202 201 203 206 206 204 200 194 194 194 196 196 200 193 191 196 197 195 194 193 195 196 194 190 184 185 189 192 193 197 199 200 206 218 209 197 196 200 189 196 205 202 202 195 192 191 190 191 192 195 194 189 180 177 179 175 182 194 188 195 168 179 200 170 138 182 210
236 146 151 157 189 206 199 176 183 236 251 279 285 151 233 297 270 227 212 204 206 208 215 213 208 206 209 208 207 207 204 202 200 202 200 204 204 200 196 198 197 200 195 188 192 193 195 195 192 194 195 195 192 187 187 190 191 193 196 200 201 205 208 214 196 191 172 168 191 200 196 206 199 197 193 192 191 192 190 194 192 183 181 180 176 189 194 192 180 174 179 203 185 176 174 184 212
213 143 127 162 167 188 167 162 196 215 204 266 232 165 253 246 260 261 170 209 222 223 219 215 210 209 211 208 209 209 206 203 200 201 202 202 203 206 206 201 201 201 194 191 192 193 193 193 192 193 196 195 192 187 188 193 196 195 196 197 202 211 211 210 170 169 171 174 188 196 201 204 194 195 196 193 194 194 195 196 186 184 182 183 188 190 192 173 184 180 182 184 194 191 178 190 172
205 109 81 124 95 156 144 182 176 244 173 250 248 172 224 267 268 287 191 196 212 220 219 217 212 210 209 207 210 210 209 207 206 206 205 206 206 206 207 206 203 202 198 197 196 192 191 190 192 192 197 195 191 189 191 193 196 194 197 200 203 206 203 194 168 177 181 176 192 197 204 202 195 190 197 196 197 200 201 198 190 191 190 184 189 193 179 173 183 190 195 194 192 192 189 180 199
131 142 231 271 314 19 38 130 155 94 239 240 235 187 193 267 226 191 164 208 206 219 232 235 230 225 221 214 210 209 207 207 205 206 206 207 208 210 206 206 209 205 200 198 198 197 193 191 193 194 198 195 190 191 190 193 195 195 199 200 203 204 198 188 179 184 176 178 196 201 203 206 193 196 190 200 203 200 203 200 195 196 187 185 192 186 187 182 186 192 197 194 186 193 186 193 215
135 149 164 281 304 358 298 347 77 220 254 230 219 185 178 239 243 235 212 202 200 200 211 212 215 218 217 212 210 209 207 206 205 204 208 207 206 209 208 214 209 205 201 199 199 196 196 196 195 197 198 195 193 193 193 195 194 198 201 201 204 205 194 191 193 195 187 192 197 202 203 197 200 191 194 200 203 204 202 205 204 191 188 188 199 194 185 182 179 185 192 193 196 196 186 184 204
164 113 116 165 268 150 265 99 236 215 233 246 199 145 310 239 224 202 211 222 213 205 207 208 211 217 218 216 212 208 206 205 202 204 204 203 203 203 204 209 205 201 202 202 198 195 194 195 195 197 200 196 195 192 194 196 196 199 199 201 206 203 198 197 196 199 192 194 195 198 192 205 197 196 203 206 208 202 200 200 201 202 197 197 200 191 188 176 180 186 192 190 192 187 193 190 194
164 177 157 155 191 202 216 242 316 300 272 238 185 176 235 298 269 203 215 211 206 209 215 212 209 211 214 214 211 207 203 202 204 203 202 202 202 203 203 205 201 199 200 201 200 197 195 195 194 197 200 195 195 194 195 195 199 200 200 201 202 199 200 199 198 199 196 196 193 199 200 203 202 208 203 210 202 199 204 205 201 204 200 191 193 193 182 182 183 189 187 189 192 200 188 191 201
190 114 156 189 173 165 205 190 206 220 226 261 253 138 232 190 252 199 205 206 206 208 211 215 216 218 218 216 211 204 200 203 205 203 203 203 203 202 202 203 202 201 199 198 198 199 196 198 196 197 198 196 195 195 194 197 199 200 201 202 202 199 201 199 201 199 194 195 197 201 205 204 206 211 208 208 189 194 203 204 206 204 197 190 188 187 183 183 191 188 187 193 196 188 192 192 201
189 152 91 124 219 135 174 199 158 245 290 294 169 203 193 203 246 282 216 202 205 205 213 217 223 226 226 227 214 202 203 205 203 204 206 206 204 201 203 202 202 202 200 199 197 196 196 199 198 199 199 195 195 196 198 198 199 199 199 200 201 200 202 201 202 199 199 197 197 199 205 206 209 210 208 193 197 194 198 204 206 207 202 198 189 189 184 187 189 189 187 186 199 180 193 191 200
204 129 198 214 98 141 249 283 197 127 6 259 201 297 295 296 319 232 231 211 211 206 214 215 221 225 224 224 211 204 204 204 201 204 204 204 202 201 203 201 201 201 199 200 200 197 198 196 196 198 200 197 196 197 198 198 199 198 200 200 199 199 199 199 200 201 200 198 198 201 203 206 205 204 205 197 192 193 196 199 205 207 203 202 198 189 187 195 189 190 191 190 200 188 194 200 195
123 186 213 64 102 124 158 227 339 225 229 264 21 203 300 240 259 286 197 197 219 210 211 212 218 223 225 227 217 208 204 204 203 203 203 201 199 200 201 202 200 199 198 200 202 199 198 197 196 197 197 197 199 198 198 198 198 200 200 200 200 200 200 201 201 201 198 195 201 204 204 200 204 204 200 196 191 194 195 198 205 206 205 204 204 190 189 196 188 197 197 198 200 189 195 194 197
172 201 152 156 206 198 262 140 235 217 242 281 279 239 238 199 234 318 188 211 225 217 217 218 220 222 224 226 225 216 212 205 201 204 203 202 202 203 202 203 202 201 200 201 200 196 196 197 200 199 199 200 197 196 197 198 198 200 200 200 199 200 201 201 201 199 194 197 200 202 203 205 203 195 194 193 194 197 196 198 199 206 204 204 200 195 189 193 190 202 198 201 194 188 191 200 196
247 86 170 177 125 187 159 198 152 139 250 234 288 159 251 195 204 186 208 207 217 216 210 210 213 215 217 221 225 218 207 200 201 200 200 201 202 201 200 201 201 200 200 202 199 196 197 198 198 200 204 202 197 195 195 198 200 200 201 201 203 202 201 199 198 195 196 199 201 200 204 203 201 195 196 193 195 197 197 194 200 204 204 199 197 193 189 193 193 208 204 202 196 183 193 202 191
209 192 188 205 218 235 156 173 190 194 183 207 232 266 263 253 205 176 205 211 216 209 210 212 214 213 213 216 220 217 209 204 203 201 200 200 202 202 203 204 203 201 200 198 193 194 198 197 198 200 199 197 195 197 195 200 197 200 199 200 201 199 200 200 200 199 200 200 199 200 202 204 197 201 192 193 197 200 199 200 195 198 198 201 201 196 193 195 199 209 212 209 196 188 201 204 187
199 192 207 197 165 163 170 249 353 151 181 226 147 251 268 263 170 189 193 215 217 220 210 222 227 225 217 220 226 222 213 207 205 203 201 200 201 201 203 203 202 200 200 197 195 197 199 197 200 199 200 198 197 196 197 198 195 197 198 200 200 199 199 199 201 200 202 201 200 199 199 195 200 202 194 196 197 199 199 198 198 201 202 202 201 199 192 194 201 209 215 206 198 192 205 207 189